STARLINK-2681, 48465

Orbit data source: Space-Track

STARLINK-2681, 48465 is a payload satellite owned by SpaceX/Seattle (US) in LEO that was launched on Sun, 09 May 2021 UTC via an FALCON 9 launch vehicle from the Air Force Eastern Test Range (AFETR). Payload-class satellites include a variety of spacecraft equipped with specific instruments for various scientific and technological missions. These include communications satellites like Starlink; space stations such as the ISS; scientific satellites like the Hubble; Earth observation satellites from companies like Planet Labs, Umbra, and HawkEye 360; GPS; miniature CubeSats for education and research; and military/defense satellites.

Loading next visibility...
Identifier
48465, 2021-040AP
Orbit
LEO
Country
Flag of USUS
Related business
Manufacturer
SpaceX/Seattle
Mission
Partially operational Commercial Communications
Bus & Motor
STARLINK, Unknown motor
Mass
260 kg wet, ~248 kg dry
Launch date (UTC)
2021-05-09 (5 years ago)
Launch vehicle
FALCON 9
Launch site
Air Force Eastern Test Range (AFETR)
Object type
Payload
Rocket body
Debris
Shape & HBR
Box + 1 Pan, 10.1 m
Radar Cross Section
13.562 m², Large (>1 m²)

Expand to show TLE details & history
Last TLE update: 2 days ago

TLE from 2 days ago
0 STARLINK-2681
1 48465U 21040AP  26171.39857656  .00092718  00000-0  67201-3 0  9996
2 48465  53.1386  59.4874 0001235 177.7213 182.3812 15.72695282282432
Epoch: 2026-06-20T09:33Z
TLE epoch observation values (Epoch: 2026-06-20T09:33:57.014Z)
Latitude
-0.00002°
Longitude
7.38606°
Altitude
352.942 km
Speed
7.698 km/s
True Right ascension
03h 57m 56s
True Declination
0° 00' 00"
Sunlit
Object was in daylight at epoch
Visualization orbit readout
Latitude
Unknown
Longitude
Unknown
Altitude
Unknown
Speed
Unknown
Apparent Right ascension
Unknown
Apparent Declination
Unknown
Sunlit
N/A
Visualization observer readout
Local Sidereal Time
21:24:06
Azimuth
Unknown
Elevation
Unknown
Doppler factor
Unknown
Orbital elements
Apogee altitude
352.293 km
Perigee altitude
350.631 km
Semi-major axis
6,729.599 km
Eccentricity
0.00012
Inclination
53.1386°
RAAN
59.4874°
Arg. of periapsis
177.7213°
True anomaly
182.38061°
Mean anomaly
182.3812°
Eccentric anomaly
182.38091°
Mean motion
3.93151 °/min
Orbital period
91.57 mins
BSTAR
0.00067201
Loading maneuver chart data...
Computing Atmospheric mass density...

Documentation

Showing up to 5 results
|